| time (UTC) | temp F | wind direction | speed knots | gust knots | rain 1hr in | rain 24hr in | rain mn in | humidity % | barometer mb |
| 20260506002507 | 78 | 9 | 0.9 | 5.2 | 0.00 | 0.00 | 0.00 | 62 | 1006.2 |
| 20260506002009 | 78 | 343 | 2.6 | 5.2 | 0.00 | 0.00 | 0.00 | 61 | 1006.2 |
| 20260506001524 | 79 | 19 | 1.7 | 7.0 | 0.00 | 0.00 | 0.00 | 60 | 1006.2 |
| 20260506001009 | 79 | 352 | 1.7 | 8.7 | 0.00 | 0.00 | 0.00 | 60 | 1006.1 |
| 20260506000511 | 79 | 336 | 3.5 | 8.7 | 0.00 | 0.00 | 0.00 | 60 | 1006.0 |
| 20260506000025 | 80 | 324 | 2.6 | 10.4 | 0.00 | 0.00 | 0.00 | 60 | 1005.6 |
| 20260505235510 | 80 | 65 | 2.6 | 10.4 | 0.00 | 0.00 | 0.00 | 59 | 1005.4 |
| 20260505235002 | 81 | 68 | 2.6 | 7.8 | 0.00 | 0.00 | 0.00 | 58 | 1005.3 |
| 20260505234510 | 82 | 302 | 2.6 | 8.7 | 0.00 | 0.00 | 0.00 | 56 | 1005.3 |
| 20260505234004 | 83 | 17 | 2.6 | 8.7 | 0.00 | 0.00 | 0.00 | 55 | 1005.3 |
| 20260505233504 | 84 | 326 | 3.5 | 8.7 | 0.00 | 0.00 | 0.00 | 54 | 1005.5 |
| 20260505233017 | 85 | 319 | 1.7 | 7.8 | 0.00 | 0.00 | 0.00 | 53 | 1005.4 |
| 20260505232509 | 85 | 336 | 2.6 | 6.1 | 0.00 | 0.00 | 0.00 | 50 | 1005.2 |
| 20260505232007 | 86 | 343 | 2.6 | 5.2 | 0.00 | 0.00 | 0.00 | 49 | 1005.1 |
| 20260505231529 | 86 | 9 | 1.7 | 6.1 | 0.00 | 0.00 | 0.00 | 47 | 1005.0 |
| 20260505231009 | 87 | 32 | 2.6 | 6.1 | 0.00 | 0.00 | 0.00 | 46 | 1004.9 |
| 20260505230507 | 88 | 11 | 2.6 | 6.1 | 0.00 | 0.00 | 0.00 | 44 | 1004.7 |
| 20260505230028 | 88 | 339 | 2.6 | 5.2 | 0.00 | 0.00 | 0.00 | 44 | 1004.7 |
| 20260505225514 | 89 | 330 | 1.7 | 3.5 | 0.00 | 0.00 | 0.00 | 45 | 1004.6 |
| 20260505225013 | 89 | 280 | 0.9 | 5.2 | 0.00 | 0.00 | 0.00 | 50 | 1004.5 |
| 20260505224528 | 89 | 205 | 0.9 | 5.2 | 0.00 | 0.00 | 0.00 | 50 | 1004.5 |
| 20260505224010 | 88 | 209 | 3.5 | 6.1 | 0.00 | 0.00 | 0.00 | 50 | 1004.6 |
| 20260505223507 | 89 | 360 | 1.7 | 7.0 | 0.00 | 0.00 | 0.00 | 50 | 1004.5 |
| 20260505223016 | 89 | 244 | 2.6 | 7.0 | 0.00 | 0.00 | 0.00 | 51 | 1004.3 |
| 20260505222506 | 89 | 254 | 3.5 | 7.0 | 0.00 | 0.00 | 0.00 | 50 | 1004.3 |
| 20260505222008 | 89 | 219 | 0.9 | 4.3 | 0.00 | 0.00 | 0.00 | 52 | 1004.2 |
| 20260505221520 | 88 | 238 | 0.9 | 7.8 | 0.00 | 0.00 | 0.00 | 51 | 1004.1 |
| 20260505221006 | 88 | 246 | 2.6 | 10.4 | 0.00 | 0.00 | 0.00 | 51 | 1004.2 |
| 20260505220507 | 88 | 188 | 4.3 | 10.4 | 0.00 | 0.00 | 0.00 | 52 | 1004.3 |
| 20260505220023 | 88 | 201 | 0.9 | 8.7 | 0.00 | 0.00 | 0.00 | 54 | 1004.3 |
| 20260505215510 | 88 | 360 | 2.6 | 7.8 | 0.00 | 0.00 | 0.00 | 53 | 1004.4 |
| 20260505215009 | 88 | 360 | 3.5 | 7.8 | 0.00 | 0.00 | 0.00 | 53 | 1004.4 |
| 20260505214535 | 88 | 216 | 2.6 | 9.6 | 0.00 | 0.00 | 0.00 | 52 | 1004.3 |
| 20260505214012 | 88 | 222 | 5.2 | 9.6 | 0.00 | 0.00 | 0.00 | 53 | 1004.3 |
| 20260505213512 | 88 | 360 | 2.6 | 6.1 | 0.00 | 0.00 | 0.00 | 53 | 1004.5 |
| 20260505213028 | 88 | 186 | 0.9 | 8.7 | 0.00 | 0.00 | 0.00 | 53 | 1004.6 |
| 20260505212510 | 88 | 360 | 1.7 | 12.2 | 0.00 | 0.00 | 0.00 | 55 | 1004.6 |
| 20260505212007 | 88 | 236 | 5.2 | 13.9 | 0.00 | 0.00 | 0.00 | 54 | 1004.7 |
| 20260505211520 | 89 | 198 | 7.0 | 13.9 | 0.00 | 0.00 | 0.00 | 53 | 1004.7 |
| 20260505211007 | 88 | 226 | 4.3 | 12.2 | 0.00 | 0.00 | 0.00 | 55 | 1004.8 |
| 20260505210511 | 88 | 180 | 5.2 | 10.4 | 0.00 | 0.00 | 0.00 | 56 | 1004.7 |
| 20260505210002 | 88 | 212 | 2.6 | 10.4 | 0.00 | 0.00 | 0.00 | 57 | 1004.7 |
| 20260505205507 | 88 | 204 | 5.2 | 10.4 | 0.00 | 0.00 | 0.00 | 56 | 1004.8 |
| 20260505205006 | 88 | 178 | 4.3 | 10.4 | 0.00 | 0.00 | 0.00 | 56 | 1004.9 |
| 20260505204506 | 88 | 259 | 5.2 | 10.4 | 0.00 | 0.00 | 0.00 | 57 | 1004.9 |
| 20260505204003 | 88 | 214 | 4.3 | 9.6 | 0.00 | 0.00 | 0.00 | 57 | 1004.9 |
| 20260505203502 | 88 | 232 | 5.2 | 8.7 | 0.00 | 0.00 | 0.00 | 57 | 1005.1 |
| 20260505203011 | 88 | 360 | 5.2 | 12.2 | 0.00 | 0.00 | 0.00 | 59 | 1005.2 |
| 20260505202504 | 88 | 209 | 3.5 | 12.2 | 0.00 | 0.00 | 0.00 | 59 | 1005.1 |
| 20260505202008 | 87 | 225 | 2.6 | 11.3 | 0.00 | 0.00 | 0.00 | 59 | 1005.1 |
| 20260505201514 | 87 | 226 | 5.2 | 11.3 | 0.00 | 0.00 | 0.00 | 60 | 1005.2 |
| 20260505201006 | 86 | 167 | 2.6 | 12.2 | 0.00 | 0.00 | 0.00 | 60 | 1005.2 |
| 20260505200509 | 86 | 266 | 5.2 | 12.2 | 0.00 | 0.00 | 0.00 | 59 | 1005.1 |
| 20260505200035 | 87 | 245 | 4.3 | 12.2 | 0.00 | 0.00 | 0.00 | 59 | 1005.2 |
| 20260505195511 | 87 | 211 | 4.3 | 13.0 | 0.00 | 0.00 | 0.00 | 59 | 1005.2 |
| 20260505195002 | 86 | 223 | 2.6 | 13.0 | 0.00 | 0.00 | 0.00 | 61 | 1005.3 |
| 20260505194507 | 86 | 239 | 3.5 | 11.3 | 0.00 | 0.00 | 0.00 | 61 | 1005.3 |
| 20260505194006 | 86 | 217 | 5.2 | 11.3 | 0.00 | 0.00 | 0.00 | 60 | 1005.4 |
| 20260505193503 | 85 | 213 | 3.5 | 8.7 | 0.00 | 0.00 | 0.00 | 62 | 1005.5 |
| 20260505193010 | 85 | 223 | 4.3 | 12.2 | 0.00 | 0.00 | 0.00 | 62 | 1005.4 |
| 20260505192504 | 85 | 232 | 2.6 | 13.0 | 0.00 | 0.00 | 0.00 | 63 | 1005.3 |
| 20260505192005 | 85 | 191 | 3.5 | 13.0 | 0.00 | 0.00 | 0.00 | 63 | 1005.5 |
| 20260505191514 | 84 | 219 | 4.3 | 10.4 | 0.00 | 0.00 | 0.00 | 64 | 1005.4 |
| 20260505191006 | 84 | 196 | 2.6 | 10.4 | 0.00 | 0.00 | 0.00 | 65 | 1005.4 |
| 20260505190506 | 83 | 239 | 5.2 | 15.6 | 0.00 | 0.00 | 0.00 | 65 | 1005.4 |
| 20260505190019 | 83 | 176 | 5.2 | 15.6 | 0.00 | 0.00 | 0.00 | 66 | 1005.4 |
| 20260505185507 | 82 | 205 | 4.3 | 14.8 | 0.00 | 0.00 | 0.00 | 66 | 1005.4 |
| 20260505185006 | 82 | 175 | 4.3 | 13.0 | 0.00 | 0.00 | 0.00 | 66 | 1005.5 |
| 20260505184524 | 82 | 230 | 7.0 | 15.6 | 0.00 | 0.00 | 0.00 | 66 | 1005.5 |
| 20260505184004 | 82 | 248 | 7.0 | 13.9 | 0.00 | 0.00 | 0.00 | 66 | 1005.6 |
| 20260505183502 | 82 | 219 | 5.2 | 12.2 | 0.00 | 0.00 | 0.00 | 67 | 1005.5 |
| 20260505183005 | 82 | 245 | 6.1 | 14.8 | 0.00 | 0.00 | 0.00 | 67 | 1005.5 |
| 20260505182503 | 82 | 198 | 9.6 | 14.8 | 0.00 | 0.00 | 0.00 | 67 | 1005.5 |
| 20260505182005 | 82 | 218 | 5.2 | 14.8 | 0.00 | 0.00 | 0.00 | 67 | 1005.5 |
| 20260505181512 | 82 | 360 | 7.0 | 13.9 | 0.00 | 0.00 | 0.00 | 68 | 1005.6 |
| 20260505181004 | 82 | 215 | 5.2 | 14.8 | 0.00 | 0.00 | 0.00 | 68 | 1005.6 |
| 20260505180503 | 81 | 270 | 6.1 | 14.8 | 0.00 | 0.00 | 0.00 | 68 | 1005.5 |
| 20260505180017 | 81 | 219 | 8.7 | 14.8 | 0.00 | 0.00 | 0.00 | 68 | 1005.6 |
| 20260505175506 | 81 | 210 | 6.1 | 13.0 | 0.00 | 0.00 | 0.00 | 68 | 1005.5 |
| 20260505175007 | 81 | 236 | 5.2 | 13.9 | 0.00 | 0.00 | 0.00 | 69 | 1005.5 |
| 20260505174523 | 81 | 231 | 4.3 | 17.4 | 0.00 | 0.00 | 0.00 | 70 | 1005.6 |
| 20260505174008 | 81 | 187 | 7.8 | 15.6 | 0.00 | 0.00 | 0.00 | 69 | 1005.8 |
| 20260505173507 | 80 | 212 | 6.1 | 14.8 | 0.00 | 0.00 | 0.00 | 69 | 1005.7 |
| 20260505173026 | 80 | 198 | 5.2 | 13.9 | 0.00 | 0.00 | 0.00 | 70 | 1005.7 |
| 20260505172503 | 80 | 262 | 5.2 | 13.9 | 0.00 | 0.00 | 0.00 | 70 | 1005.8 |
| 20260505172005 | 79 | 215 | 3.5 | 14.8 | 0.00 | 0.00 | 0.00 | 71 | 1005.8 |
| 20260505171515 | 79 | 217 | 4.3 | 14.8 | 0.00 | 0.00 | 0.00 | 71 | 1005.9 |
| 20260505171004 | 79 | 228 | 7.0 | 13.0 | 0.00 | 0.00 | 0.00 | 71 | 1005.9 |
| 20260505170502 | 79 | 249 | 6.1 | 13.0 | 0.00 | 0.00 | 0.00 | 71 | 1006.0 |
| 20260505170017 | 79 | 186 | 6.1 | 17.4 | 0.00 | 0.00 | 0.00 | 71 | 1005.9 |
| 20260505165504 | 79 | 205 | 7.0 | 17.4 | 0.00 | 0.00 | 0.00 | 71 | 1006.0 |
| 20260505165009 | 79 | 220 | 7.0 | 16.5 | 0.00 | 0.00 | 0.00 | 71 | 1005.9 |
| 20260505164518 | 79 | 200 | 7.8 | 14.8 | 0.00 | 0.00 | 0.00 | 71 | 1005.9 |
| 20260505164008 | 79 | 230 | 6.1 | 15.6 | 0.00 | 0.00 | 0.00 | 72 | 1005.7 |
| 20260505163507 | 78 | 213 | 5.2 | 16.5 | 0.00 | 0.00 | 0.00 | 72 | 1005.8 |
| 20260505163022 | 78 | 219 | 7.0 | 16.5 | 0.00 | 0.00 | 0.00 | 72 | 1005.7 |
| 20260505162507 | 78 | 240 | 7.0 | 16.5 | 0.00 | 0.00 | 0.00 | 72 | 1005.7 |
| 20260505162010 | 78 | 173 | 5.2 | 16.5 | 0.00 | 0.00 | 0.00 | 72 | 1005.7 |
| 20260505161528 | 78 | 212 | 7.0 | 13.0 | 0.00 | 0.00 | 0.00 | 72 | 1005.7 |
| 20260505161004 | 78 | 202 | 5.2 | 16.5 | 0.00 | 0.00 | 0.00 | 73 | 1005.7 |
| 20260505160502 | 77 | 214 | 7.0 | 16.5 | 0.00 | 0.00 | 0.00 | 72 | 1005.6 |
| 20260505153023 | 76 | 221 | 7.0 | 19.1 | 0.00 | 0.00 | 0.00 | 75 | 1005.4 |
| 20260505152508 | 76 | 215 | 9.6 | 20.0 | 0.00 | 0.00 | 0.00 | 75 | 1005.4 |
| 20260505152013 | 76 | 188 | 7.0 | 17.4 | 0.00 | 0.00 | 0.00 | 75 | 1005.5 |
| 20260505151525 | 76 | 244 | 7.0 | 18.2 | 0.00 | 0.00 | 0.00 | 76 | 1005.5 |
| 20260505151009 | 75 | 227 | 5.2 | 18.2 | 0.00 | 0.00 | 0.00 | 76 | 1005.6 |
| 20260505150508 | 75 | 191 | 6.1 | 14.8 | 0.00 | 0.00 | 0.00 | 76 | 1005.5 |
| 20260505140512 | 73 | 171 | 5.2 | 14.8 | 0.00 | 0.00 | 0.00 | 80 | 1005.4 |
| 20260505125010 | 72 | 212 | 5.2 | 16.5 | 0.00 | 0.00 | 0.00 | 81 | 1004.8 |
| 20260505124530 | 72 | 234 | 6.1 | 17.4 | 0.00 | 0.00 | 0.00 | 81 | 1004.8 |
| 20260505124009 | 72 | 200 | 6.1 | 17.4 | 0.00 | 0.00 | 0.00 | 81 | 1004.8 |
| 20260505123511 | 71 | 172 | 4.3 | 13.0 | 0.00 | 0.00 | 0.00 | 81 | 1004.6 |
| 20260505123027 | 71 | 211 | 6.1 | 13.0 | 0.00 | 0.00 | 0.00 | 81 | 1004.6 |
| 20260505122505 | 71 | 216 | 4.3 | 13.0 | 0.00 | 0.00 | 0.00 | 81 | 1004.4 |
| 20260505122011 | 71 | 195 | 4.3 | 13.0 | 0.00 | 0.00 | 0.00 | 81 | 1004.4 |
| 20260505121523 | 72 | 230 | 5.2 | 16.5 | 0.00 | 0.00 | 0.00 | 81 | 1004.4 |
| 20260505121010 | 71 | 235 | 6.1 | 19.1 | 0.00 | 0.00 | 0.00 | 81 | 1004.4 |
| 20260505120508 | 71 | 228 | 7.8 | 19.1 | 0.00 | 0.00 | 0.00 | 81 | 1004.4 |
| 20260505120007 | 72 | 244 | 4.3 | 13.0 | 0.00 | 0.00 | 0.00 | 81 | 1004.2 |
| 20260505115503 | 71 | 219 | 4.3 | 13.0 | 0.00 | 0.00 | 0.00 | 81 | 1004.1 |
| 20260505115003 | 72 | 193 | 5.2 | 20.0 | 0.00 | 0.00 | 0.00 | 81 | 1004.2 |
| 20260505114504 | 71 | 177 | 3.5 | 20.0 | 0.00 | 0.00 | 0.00 | 81 | 1004.3 |
| 20260505114003 | 71 | 200 | 4.3 | 13.0 | 0.00 | 0.00 | 0.00 | 81 | 1004.0 |
| 20260505113502 | 71 | 239 | 6.1 | 13.0 | 0.00 | 0.00 | 0.00 | 81 | 1004.2 |
| 20260505113007 | 71 | 216 | 7.8 | 13.0 | 0.00 | 0.00 | 0.00 | 81 | 1004.1 |
| 20260505112502 | 71 | 173 | 3.5 | 10.4 | 0.00 | 0.00 | 0.00 | 81 | 1004.3 |
| 20260505112002 | 71 | 218 | 3.5 | 11.3 | 0.00 | 0.00 | 0.00 | 81 | 1004.0 |
| 20260505111507 | 71 | 223 | 4.3 | 11.3 | 0.00 | 0.00 | 0.00 | 81 | 1004.3 |
| 20260505111004 | 71 | 194 | 4.3 | 14.8 | 0.00 | 0.00 | 0.00 | 81 | 1004.2 |
| 20260505110503 | 71 | 187 | 3.5 | 14.8 | 0.00 | 0.00 | 0.00 | 81 | 1004.3 |
| 20260505102003 | 71 | 225 | 4.3 | 14.8 | 0.00 | 0.00 | 0.00 | 81 | 1004.4 |
| 20260505101509 | 71 | 206 | 5.2 | 14.8 | 0.00 | 0.00 | 0.00 | 81 | 1004.3 |
| 20260505101003 | 71 | 211 | 5.2 | 13.9 | 0.00 | 0.00 | 0.00 | 80 | 1004.3 |
| 20260505100504 | 71 | 243 | 6.1 | 13.9 | 0.00 | 0.00 | 0.00 | 80 | 1004.2 |
| 20260505100003 | 71 | 196 | 4.3 | 14.8 | 0.00 | 0.00 | 0.00 | 80 | 1004.2 |
| 20260505095502 | 71 | 244 | 7.0 | 15.6 | 0.00 | 0.00 | 0.00 | 81 | 1004.2 |
| 20260505095004 | 71 | 222 | 5.2 | 15.6 | 0.00 | 0.00 | 0.00 | 81 | 1004.4 |
| 20260505094507 | 71 | 225 | 4.3 | 15.6 | 0.00 | 0.00 | 0.00 | 81 | 1004.2 |
| 20260505094006 | 71 | 212 | 7.8 | 15.6 | 0.00 | 0.00 | 0.00 | 81 | 1004.4 |
| 20260505093502 | 71 | 233 | 4.3 | 12.2 | 0.00 | 0.00 | 0.00 | 81 | 1004.4 |
| 20260505093007 | 71 | 247 | 6.1 | 13.0 | 0.00 | 0.00 | 0.00 | 81 | 1004.3 |
| 20260505092503 | 71 | 225 | 3.5 | 13.9 | 0.00 | 0.00 | 0.00 | 81 | 1004.5 |
| 20260505092003 | 71 | 244 | 6.1 | 18.2 | 0.00 | 0.00 | 0.00 | 81 | 1004.5 |
| 20260505091508 | 71 | 253 | 7.0 | 18.2 | 0.00 | 0.00 | 0.00 | 81 | 1004.5 |
| 20260505091003 | 71 | 295 | 6.1 | 15.6 | 0.00 | 0.00 | 0.00 | 81 | 1004.7 |
| 20260505090503 | 71 | 188 | 6.1 | 16.5 | 0.00 | 0.00 | 0.00 | 81 | 1004.7 |
| 20260505090012 | 71 | 234 | 7.0 | 16.5 | 0.00 | 0.00 | 0.00 | 81 | 1004.6 |
| 20260505085503 | 71 | 186 | 7.0 | 13.0 | 0.00 | 0.00 | 0.00 | 81 | 1004.5 |
| 20260505085003 | 71 | 196 | 4.3 | 11.3 | 0.00 | 0.00 | 0.00 | 81 | 1004.6 |
| 20260505084505 | 71 | 208 | 7.0 | 13.9 | 0.00 | 0.00 | 0.00 | 81 | 1004.7 |
| 20260505084004 | 71 | 184 | 2.6 | 13.9 | 0.00 | 0.00 | 0.00 | 81 | 1004.6 |
| 20260505083502 | 71 | 182 | 4.3 | 9.6 | 0.00 | 0.00 | 0.00 | 81 | 1004.6 |
| 20260505083013 | 71 | 179 | 3.5 | 11.3 | 0.00 | 0.00 | 0.00 | 81 | 1004.8 |
| 20260505082504 | 71 | 178 | 3.5 | 11.3 | 0.00 | 0.00 | 0.00 | 80 | 1004.8 |
| 20260505082003 | 71 | 220 | 2.6 | 13.9 | 0.00 | 0.00 | 0.00 | 80 | 1004.7 |
| 20260505081512 | 71 | 201 | 4.3 | 13.9 | 0.00 | 0.00 | 0.00 | 80 | 1004.8 |
| 20260505081007 | 71 | 180 | 2.6 | 9.6 | 0.00 | 0.00 | 0.00 | 80 | 1004.8 |
| 20260505080504 | 71 | 196 | 4.3 | 10.4 | 0.00 | 0.00 | 0.00 | 79 | 1004.9 |
| 20260505080012 | 71 | 211 | 4.3 | 12.2 | 0.00 | 0.00 | 0.00 | 79 | 1004.9 |
| 20260505075504 | 71 | 196 | 3.5 | 12.2 | 0.00 | 0.00 | 0.00 | 79 | 1004.8 |
| 20260505075007 | 72 | 245 | 3.5 | 12.2 | 0.00 | 0.00 | 0.00 | 79 | 1005.1 |
| 20260505074513 | 72 | 261 | 4.3 | 8.7 | 0.00 | 0.00 | 0.00 | 79 | 1005.2 |
| 20260505074004 | 72 | 241 | 4.3 | 13.9 | 0.00 | 0.00 | 0.00 | 78 | 1005.2 |
| 20260505073503 | 72 | 175 | 5.2 | 18.2 | 0.00 | 0.00 | 0.00 | 78 | 1005.3 |
| 20260505073008 | 72 | 224 | 3.5 | 18.2 | 0.00 | 0.00 | 0.00 | 78 | 1005.5 |
| 20260505072505 | 72 | 215 | 4.3 | 13.9 | 0.00 | 0.00 | 0.00 | 78 | 1005.5 |
| 20260505072003 | 72 | 196 | 5.2 | 13.9 | 0.00 | 0.00 | 0.00 | 77 | 1005.6 |
| 20260505071523 | 72 | 223 | 4.3 | 13.9 | 0.00 | 0.00 | 0.00 | 77 | 1005.7 |
| 20260505071003 | 72 | 231 | 4.3 | 11.3 | 0.00 | 0.00 | 0.00 | 77 | 1005.7 |
| 20260505070506 | 72 | 168 | 3.5 | 14.8 | 0.00 | 0.00 | 0.00 | 77 | 1005.8 |
| 20260505070016 | 72 | 225 | 7.8 | 13.9 | 0.00 | 0.00 | 0.00 | 77 | 1005.8 |
| 20260505065503 | 72 | 213 | 6.1 | 13.9 | 0.00 | 0.00 | 0.00 | 76 | 1005.8 |
| 20260505065004 | 72 | 240 | 5.2 | 11.3 | 0.00 | 0.00 | 0.00 | 76 | 1006.0 |
| 20260505064521 | 72 | 207 | 2.6 | 10.4 | 0.00 | 0.00 | 0.00 | 76 | 1006.1 |
| 20260505064007 | 72 | 240 | 3.5 | 12.2 | 0.00 | 0.00 | 0.00 | 76 | 1006.1 |
| 20260505063503 | 72 | 219 | 4.3 | 13.9 | 0.00 | 0.00 | 0.00 | 76 | 1006.1 |
| 20260505063011 | 72 | 220 | 5.2 | 13.9 | 0.00 | 0.00 | 0.00 | 76 | 1006.2 |
| 20260505062503 | 72 | 227 | 2.6 | 14.8 | 0.00 | 0.00 | 0.00 | 75 | 1006.2 |
| 20260505062004 | 72 | 208 | 7.0 | 14.8 | 0.00 | 0.00 | 0.00 | 75 | 1006.2 |
| 20260505061511 | 72 | 208 | 4.3 | 12.2 | 0.00 | 0.00 | 0.00 | 75 | 1006.2 |
| 20260505061003 | 72 | 252 | 4.3 | 9.6 | 0.00 | 0.00 | 0.00 | 75 | 1006.2 |
| 20260505060506 | 72 | 210 | 3.5 | 12.2 | 0.00 | 0.00 | 0.00 | 75 | 1006.1 |
| 20260505060014 | 72 | 209 | 5.2 | 13.9 | 0.00 | 0.00 | 0.00 | 75 | 1006.2 |
| 20260505055504 | 72 | 231 | 3.5 | 13.9 | 0.00 | 0.00 | 0.00 | 75 | 1006.2 |
| 20260505055007 | 72 | 219 | 3.5 | 12.2 | 0.00 | 0.00 | 0.00 | 74 | 1006.2 |
| 20260505054527 | 72 | 186 | 3.5 | 13.9 | 0.00 | 0.00 | 0.00 | 74 | 1006.4 |
| 20260505054011 | 72 | 250 | 4.3 | 13.9 | 0.00 | 0.00 | 0.00 | 74 | 1006.4 |
| 20260505053505 | 73 | 260 | 2.6 | 13.9 | 0.00 | 0.00 | 0.00 | 73 | 1006.4 |
| 20260505053024 | 73 | 226 | 3.5 | 13.9 | 0.00 | 0.00 | 0.00 | 73 | 1006.5 |
| 20260505052508 | 73 | 232 | 4.3 | 16.5 | 0.00 | 0.00 | 0.00 | 73 | 1006.6 |
| 20260505052007 | 73 | 241 | 5.2 | 16.5 | 0.00 | 0.00 | 0.00 | 73 | 1006.5 |
| 20260505051509 | 73 | 200 | 3.5 | 11.3 | 0.00 | 0.00 | 0.00 | 72 | 1006.5 |
| 20260505051006 | 73 | 221 | 6.1 | 11.3 | 0.00 | 0.00 | 0.00 | 72 | 1006.6 |
| 20260505050505 | 73 | 219 | 2.6 | 10.4 | 0.00 | 0.00 | 0.00 | 72 | 1006.6 |
| 20260505041522 | 74 | 114 | 4.3 | 13.9 | 0.00 | 0.00 | 0.00 | 70 | 1006.9 |
| 20260505041007 | 74 | 208 | 4.3 | 11.3 | 0.00 | 0.00 | 0.00 | 70 | 1006.9 |
| 20260505040507 | 74 | 166 | 3.5 | 12.2 | 0.00 | 0.00 | 0.00 | 70 | 1007.0 |
| 20260505040015 | 74 | 185 | 2.6 | 12.2 | 0.00 | 0.00 | 0.00 | 69 | 1007.1 |
| 20260505035505 | 74 | 211 | 2.6 | 10.4 | 0.00 | 0.00 | 0.00 | 69 | 1007.0 |
| 20260505035003 | 74 | 215 | 3.5 | 10.4 | 0.00 | 0.00 | 0.00 | 69 | 1006.9 |
| 20260505034515 | 74 | 240 | 2.6 | 9.6 | 0.00 | 0.00 | 0.00 | 69 | 1007.0 |
| 20260505034007 | 74 | 228 | 3.5 | 10.4 | 0.00 | 0.00 | 0.00 | 69 | 1006.9 |
| 20260505033507 | 74 | 215 | 2.6 | 10.4 | 0.00 | 0.00 | 0.00 | 68 | 1006.8 |
| 20260505033027 | 74 | 248 | 3.5 | 10.4 | 0.00 | 0.00 | 0.00 | 68 | 1006.9 |
| 20260505032507 | 74 | 202 | 4.3 | 9.6 | 0.00 | 0.00 | 0.00 | 68 | 1006.9 |
| 20260505032011 | 75 | 211 | 3.5 | 7.8 | 0.00 | 0.00 | 0.00 | 68 | 1006.9 |
| 20260505031521 | 75 | 264 | 3.5 | 13.0 | 0.00 | 0.00 | 0.00 | 68 | 1006.9 |
| 20260505031009 | 75 | 188 | 3.5 | 12.2 | 0.00 | 0.00 | 0.00 | 68 | 1006.9 |
| 20260505030511 | 75 | 183 | 2.6 | 9.6 | 0.00 | 0.00 | 0.00 | 68 | 1006.9 |
| 20260505030026 | 75 | 179 | 4.3 | 9.6 | 0.00 | 0.00 | 0.00 | 68 | 1006.8 |
| 20260505025507 | 75 | 226 | 2.6 | 10.4 | 0.00 | 0.00 | 0.00 | 68 | 1006.8 |
| 20260505025010 | 75 | 193 | 3.5 | 11.3 | 0.00 | 0.00 | 0.00 | 67 | 1006.8 |
| 20260505024512 | 75 | 177 | 4.3 | 11.3 | 0.00 | 0.00 | 0.00 | 67 | 1006.8 |
| 20260505024006 | 75 | 130 | 4.3 | 9.6 | 0.00 | 0.00 | 0.00 | 67 | 1006.8 |
| 20260505023505 | 75 | 209 | 2.6 | 10.4 | 0.00 | 0.00 | 0.00 | 67 | 1006.9 |
| 20260505023019 | 75 | 237 | 4.3 | 10.4 | 0.00 | 0.00 | 0.00 | 67 | 1006.8 |
| 20260505022509 | 75 | 198 | 2.6 | 12.2 | 0.00 | 0.00 | 0.00 | 67 | 1006.7 |
| 20260505022008 | 75 | 174 | 3.5 | 12.2 | 0.00 | 0.00 | 0.00 | 67 | 1006.8 |
| 20260505021526 | 75 | 221 | 4.3 | 10.4 | 0.00 | 0.00 | 0.00 | 66 | 1006.8 |
| 20260505021006 | 75 | 227 | 3.5 | 8.7 | 0.00 | 0.00 | 0.00 | 66 | 1006.7 |
| 20260505020511 | 75 | 236 | 2.6 | 7.8 | 0.00 | 0.00 | 0.00 | 66 | 1006.6 |
| 20260505020024 | 75 | 175 | 2.6 | 7.0 | 0.00 | 0.00 | 0.00 | 66 | 1006.6 |
| 20260505015510 | 75 | 182 | 2.6 | 6.1 | 0.00 | 0.00 | 0.00 | 65 | 1006.7 |
| 20260505015012 | 76 | 235 | 2.6 | 6.1 | 0.00 | 0.00 | 0.00 | 65 | 1006.8 |
| 20260505014528 | 76 | 175 | 2.6 | 6.1 | 0.00 | 0.00 | 0.00 | 65 | 1006.8 |
| 20260505014008 | 76 | 182 | 1.7 | 8.7 | 0.00 | 0.00 | 0.00 | 65 | 1007.0 |
| 20260505013509 | 76 | 209 | 0.9 | 8.7 | 0.00 | 0.00 | 0.00 | 64 | 1006.8 |
| 20260505013015 | 76 | 193 | 3.5 | 8.7 | 0.00 | 0.00 | 0.00 | 64 | 1006.8 |
| 20260505012506 | 76 | 190 | 1.7 | 13.0 | 0.00 | 0.00 | 0.00 | 63 | 1006.9 |
| 20260505012008 | 76 | 247 | 2.6 | 13.0 | 0.00 | 0.00 | 0.00 | 63 | 1006.8 |
| 20260505011524 | 77 | 201 | 4.3 | 13.0 | 0.00 | 0.00 | 0.00 | 63 | 1006.7 |
| 20260505011010 | 77 | 215 | 2.6 | 13.0 | 0.00 | 0.00 | 0.00 | 63 | 1006.8 |
| 20260505010507 | 77 | 219 | 4.3 | 12.2 | 0.00 | 0.00 | 0.00 | 63 | 1006.7 |
| 20260505010027 | 77 | 192 | 5.2 | 14.8 | 0.00 | 0.00 | 0.00 | 62 | 1006.7 |
| 20260505005506 | 77 | 265 | 2.6 | 14.8 | 0.00 | 0.00 | 0.00 | 62 | 1006.6 |
| 20260505005011 | 77 | 225 | 2.6 | 10.4 | 0.00 | 0.00 | 0.00 | 62 | 1006.7 |
| 20260505004528 | 77 | 182 | 4.3 | 13.9 | 0.00 | 0.00 | 0.00 | 61 | 1006.7 |
| 20260505004011 | 77 | 183 | 2.6 | 15.6 | 0.00 | 0.00 | 0.00 | 61 | 1006.5 |
| 20260505003514 | 77 | 221 | 5.2 | 15.6 | 0.00 | 0.00 | 0.00 | 61 | 1006.7 |
| 20260505003025 | 77 | 232 | 4.3 | 13.0 | 0.00 | 0.00 | 0.00 | 61 | 1006.8 |